Skip Page Navigation
NASA JPL Caltech
NASA Logo - Jet Propulsion Laboratory + View the NASA Portal
+ Near-Earth Object (NEO) Program
Search JPL
JPL Home Earth Solar System Stars & Galaxies Technology
JPL Solar System Dynamics
BODIES ORBITS EPHEMERIDES TOOLS PHYSICAL DATA DISCOVERY FAQ SITE MAP
JPL Small-Body Database Browser
Search: [ help ]  
5831 Dizzy (1991 JG)
Classification: Main-belt Asteroid          SPK-ID: 2005831
Ephemeris | Orbit Diagram | Orbital Elements | Physical Parameters | Discovery Circumstances | Close-Approach Data ]

[ show orbit diagram ]
Orbital Elements at Epoch 2456400.5 (2013-Apr-18.0) TDB
Reference: JPL 1 (heliocentric ecliptic J2000)
 Element Value Uncertainty (1-sigma)   Units 
e .1435560512613419 8.5067e-08  
a 2.687120469895586 2.0567e-08 AU
q 2.301368065973854 2.3346e-07 AU
i 12.78817748898136 8.667e-06 deg
node 63.75845375756454 3.3136e-05 deg
peri 165.8823508874838 4.067e-05 deg
M 340.2977785846096 2.6671e-05 deg
tp 2456488.552527661520
(2013-Jul-15.05252766)
0.00011946 JED
period 1608.90030062223
4.40
1.8472e-05
5.057e-08
d
yr
n .2237553189969401 2.5689e-09 deg/d
Q 3.072872873817317 2.352e-08 AU
  Orbit Determination Parameters
   # obs. used (total)      823  
   data-arc span      27411 days (75.05 yr)  
   first obs. used      1938-04-05  
   last obs. used      2013-04-22  
   planetary ephem.      DE405  
   SB-pert. ephem.      SB405-CPV-2  
   condition code      0  
   fit RMS      .54491  
   data source      ORB  
   producer      Otto Matic  
   solution date      2013-Apr-29 13:18:49  

Additional Information
 Earth MOID = 1.29269 AU 
 T_jup = 3.323 
[ show covariance matrix ]

Ephemeris | Orbit Diagram | Orbital Elements | Physical Parameters | Discovery Circumstances | Close-Approach Data ]

Physical Parameter Table
Parameter Symbol Value Units Sigma Reference Notes
absolute magnitude H 12.2 mag n/a PDS3 (MPC 28114)  

5831 Dizzy           Discovered 1991 May 4 by S. Ueda and H. Kaneda at Kushiro.
Trumpeter John Birks "Dizzy" Gillespie (1917-1993), also known as the composer of A Night in Tunisia, is said by some to have had a greater role than "Bird" (Charlie Parker) in the invention of bebop, of which he was clearly a leading proponent.
NOTE: some special characters may not display properly (any characters within {} are an attempt to place the proper accent above a character)
Reference: 20051215/MPCPages.arcLast Updated: 2006-03-22

[ show close-approach data ]
Alternate Designations
 1991 JG = 1938 GF = 1973 GV = 1977 BX 
Ephemeris | Orbit Diagram | Orbital Elements | Physical Parameters | Discovery Circumstances | Close-Approach Data ]
ABOUT SSD CREDITS/AWARDS PRIVACY/COPYRIGHT GLOSSARY LINKS
FirstGov 2013-Jun-19 13:28 UT
(server date/time)  
NASA Home Page
Site Manager:   Donald K. Yeomans
Webmaster  Alan B. Chamberlin